Time,TemperatureF,DewpointF,PressureIn,WindDirection,WindDirectionDegrees,WindSpeedMPH,WindSpeedGustMPH,Humidity,HourlyPrecipIn,Conditions,Clouds,dailyrainin,SoftwareType,DateUTC
2013-03-17 00:17:00,30.7,21.4,30.11,East,90,5.8,6.5,68,0.00,,,0.00,open2300-1.11,2013-03-17 05:17:00,
2013-03-17 01:17:00,30.4,21.0,30.09,ENE,67,1.6,7.2,68,0.00,,,0.00,open2300-1.11,2013-03-17 06:17:00,
2013-03-17 02:17:00,30.0,20.7,30.07,ENE,67,5.4,6.7,68,0.00,,,0.00,open2300-1.11,2013-03-17 07:17:00,
2013-03-17 03:17:00,28.9,20.1,30.06,ENE,67,1.6,6.3,69,0.00,,,0.00,open2300-1.11,2013-03-17 08:17:00,
2013-03-17 04:17:00,27.7,19.2,30.03,NE,45,0.0,9.2,70,0.00,,,0.00,open2300-1.11,2013-03-17 09:17:00,
2013-03-17 05:17:00,27.1,19.0,30.03,ESE,112,0.0,6.3,71,0.00,,,0.00,open2300-1.11,2013-03-17 10:17:00,
2013-03-17 06:17:00,26.2,18.1,30.02,ENE,67,0.9,10.5,71,0.00,,,0.00,open2300-1.11,2013-03-17 11:17:00,
2013-03-17 07:17:00,25.9,18.0,30.04,ENE,67,4.2,8.1,72,0.00,,,0.00,open2300-1.11,2013-03-17 12:17:00,
2013-03-17 08:17:00,26.1,18.2,30.04,ESE,112,2.5,6.7,72,0.00,,,0.00,open2300-1.11,2013-03-17 13:17:00,
2013-03-17 09:17:00,27.7,19.5,30.04,ESE,112,0.7,8.5,71,0.00,,,0.00,open2300-1.11,2013-03-17 14:17:00,
2013-03-17 10:17:00,29.3,20.0,30.02,East,90,8.5,15.9,68,0.00,,,0.00,open2300-1.11,2013-03-17 15:17:00,
2013-03-17 11:17:00,33.6,22.7,29.99,SE,135,4.2,8.9,64,0.00,,,0.00,open2300-1.11,2013-03-17 16:17:00,
2013-03-17 12:17:00,40.3,25.3,29.95,East,90,2.2,9.8,55,0.00,,,0.00,open2300-1.11,2013-03-17 17:17:00,
2013-03-17 13:17:00,45.0,27.9,29.89,South,180,3.1,6.7,51,0.00,,,0.00,open2300-1.11,2013-03-17 18:17:00,
2013-03-17 14:17:00,47.8,29.0,29.87,SSE,157,1.3,8.1,48,0.00,,,0.00,open2300-1.11,2013-03-17 19:17:00,
2013-03-17 15:17:00,52.2,31.3,29.81,SSE,157,1.6,8.1,45,0.00,,,0.00,open2300-1.11,2013-03-17 20:17:00,
2013-03-17 16:17:00,55.6,33.3,29.76,ESE,112,4.7,11.0,43,0.00,,,0.00,open2300-1.11,2013-03-17 21:17:00,
2013-03-17 17:17:00,55.0,32.2,29.74,East,90,5.6,13.2,42,0.00,,,0.00,open2300-1.11,2013-03-17 22:17:00,
2013-03-17 18:17:00,50.5,29.9,29.72,ESE,112,1.3,7.2,45,0.00,,,0.00,open2300-1.11,2013-03-17 23:17:00,
2013-03-17 19:17:00,46.0,28.4,29.71,SSE,157,4.0,8.7,50,0.00,,,0.00,open2300-1.11,2013-03-18 00:17:00,
2013-03-17 20:17:00,42.6,27.5,29.75,ESE,112,5.4,12.8,55,0.00,,,0.00,open2300-1.11,2013-03-18 01:17:00,
2013-03-17 21:17:00,39.9,27.1,29.77,SSE,157,0.4,9.6,60,0.00,,,0.00,open2300-1.11,2013-03-18 02:17:00,
2013-03-17 22:17:00,37.9,27.5,29.79,ESE,112,4.9,7.8,66,0.00,,,0.00,open2300-1.11,2013-03-18 03:17:00,
2013-03-17 23:17:00,36.3,27.8,29.77,East,90,0.0,6.5,71,0.00,,,0.00,open2300-1.11,2013-03-18 04:17:00,